Tracking 30692 objects as of 16-Jun-2025
HD Live streaming from Space Station
objects crossing your sky now

COSMOS 2133

Track COSMOS 2133 now!
COSMOS 2133 is classified as:


NORAD ID: 21111
Int'l Code: 1991-010A
Perigee: 35,766.5 km
Apogee: 35,816.1 km
Inclination: 13.5 °
Period: 1,436.0 minutes
Semi major axis: 42162 km
RCS: 12.1 m2 (large)
Launch date: February 14, 1991
Source: Commonwealth of Independent States (former USSR) (CIS)
Launch site: TYURATAM MISSILE AND SPACE COMPLEX (TTMTR)
Your satellite tracking list
Your tracking list is empty




NASA's NSSDC Master Catalog

Two Line Element Set (TLE):
1 21111U 91010A   25167.51885730 -.00000065  00000-0  00000-0 0  9997
2 21111  13.4893 345.3346 0005883 176.4079   0.8662  1.00280360125776
Source of the keplerian elements: AFSPC